Time,TemperatureF,DewpointF,PressureIn,WindDirection,WindDirectionDegrees,WindSpeedMPH,WindSpeedGustMPH,Humidity,HourlyPrecipIn,Conditions,Clouds,dailyrainin,SoftwareType,DateUTC
2013-02-12 00:00:00,38.2,28.2,30.11,WSW,253,3.0,3.0,67,0.00,,,0.00,VWS V14.01,2013-02-12 05:00:00,
2013-02-12 00:01:00,38.2,28.2,30.12,WSW,253,0.0,0.0,67,0.00,,,0.00,VWS V14.01,2013-02-12 05:01:00,
2013-02-12 00:03:00,38.2,28.2,30.12,WSW,253,0.0,0.0,67,0.00,,,0.00,VWS V14.01,2013-02-12 05:03:00,
2013-02-12 00:08:00,38.0,28.4,30.12,WSW,253,0.0,0.0,68,0.00,,,0.00,VWS V14.01,2013-02-12 05:08:00,
2013-02-12 00:13:00,37.7,28.1,30.12,WSW,253,0.0,0.0,68,0.00,,,0.00,VWS V14.01,2013-02-12 05:13:00,
2013-02-12 00:18:00,37.3,28.1,30.12,WSW,253,1.0,1.0,69,0.00,,,0.00,VWS V14.01,2013-02-12 05:18:00,
2013-02-12 00:23:00,37.0,28.1,30.11,WSW,253,0.0,0.0,70,0.00,,,0.00,VWS V14.01,2013-02-12 05:23:00,
2013-02-12 00:28:00,36.9,28.0,30.11,WSW,253,0.0,1.0,70,0.00,,,0.00,VWS V14.01,2013-02-12 05:28:00,
2013-02-12 00:33:00,36.9,28.0,30.11,WSW,253,0.0,0.0,70,0.00,,,0.00,VWS V14.01,2013-02-12 05:33:00,
2013-02-12 00:38:00,36.7,28.2,30.11,WSW,253,0.0,2.0,71,0.00,,,0.00,VWS V14.01,2013-02-12 05:38:00,
2013-02-12 00:43:00,36.7,28.2,30.11,WSW,253,0.0,1.0,71,0.00,,,0.00,VWS V14.01,2013-02-12 05:43:00,
2013-02-12 00:48:00,36.9,28.4,30.11,WSW,253,1.0,3.0,71,0.00,,,0.00,VWS V14.01,2013-02-12 05:48:00,
2013-02-12 00:53:00,37.4,28.5,30.11,WSW,252,0.0,0.0,70,0.00,,,0.00,VWS V14.01,2013-02-12 05:53:00,
2013-02-12 00:58:00,37.2,28.3,30.11,WSW,252,0.0,0.0,70,0.00,,,0.00,VWS V14.01,2013-02-12 05:58:00,
2013-02-12 01:03:00,36.9,28.4,30.11,WSW,252,0.0,0.0,71,0.00,,,0.00,VWS V14.01,2013-02-12 06:03:00,
2013-02-12 01:08:00,37.0,28.8,30.11,WSW,252,0.0,1.0,72,0.00,,,0.00,VWS V14.01,2013-02-12 06:08:00,
2013-02-12 01:13:00,37.2,28.7,30.11,WSW,252,0.0,0.0,71,0.00,,,0.00,VWS V14.01,2013-02-12 06:13:00,
2013-02-12 01:18:00,37.1,28.6,30.11,WSW,252,0.0,0.0,71,0.00,,,0.00,VWS V14.01,2013-02-12 06:18:00,
2013-02-12 01:23:00,36.9,28.7,30.11,WSW,252,2.0,2.0,72,0.00,,,0.00,VWS V14.01,2013-02-12 06:23:00,
2013-02-12 01:28:00,37.0,28.8,30.12,WSW,252,1.0,1.0,72,0.00,,,0.00,VWS V14.01,2013-02-12 06:28:00,
2013-02-12 01:33:00,37.0,29.2,30.12,WSW,252,1.0,2.0,73,0.00,,,0.00,VWS V14.01,2013-02-12 06:33:00,
2013-02-12 01:38:00,37.1,29.3,30.12,WSW,249,0.0,0.0,73,0.00,,,0.00,VWS V14.01,2013-02-12 06:38:00,
2013-02-12 01:43:00,37.0,29.2,30.12,WSW,249,0.0,1.0,73,0.00,,,0.00,VWS V14.01,2013-02-12 06:43:00,
2013-02-12 01:48:00,36.9,29.1,30.12,WSW,249,0.0,0.0,73,0.00,,,0.00,VWS V14.01,2013-02-12 06:48:00,
2013-02-12 01:54:00,37.0,29.5,30.12,WSW,249,0.0,1.0,74,0.00,,,0.00,VWS V14.01,2013-02-12 06:54:00,
2013-02-12 01:59:00,37.0,29.5,30.12,WSW,249,0.0,1.0,74,0.00,,,0.00,VWS V14.01,2013-02-12 06:59:00,
2013-02-12 02:04:00,36.7,29.5,30.12,WSW,249,0.0,0.0,75,0.00,,,0.00,VWS V14.01,2013-02-12 07:04:00,
2013-02-12 02:09:00,36.5,29.3,30.13,WSW,249,0.0,0.0,75,0.00,,,0.00,VWS V14.01,2013-02-12 07:09:00,
2013-02-12 02:14:00,36.6,29.4,30.13,WSW,249,0.0,0.0,75,0.00,,,0.00,VWS V14.01,2013-02-12 07:14:00,
2013-02-12 02:19:00,36.7,29.5,30.13,WSW,249,0.0,1.0,75,0.00,,,0.00,VWS V14.01,2013-02-12 07:19:00,
2013-02-12 02:24:00,36.4,29.2,30.13,WSW,249,0.0,0.0,75,0.00,,,0.00,VWS V14.01,2013-02-12 07:24:00,
2013-02-12 02:29:00,36.1,29.3,30.13,WSW,249,0.0,0.0,76,0.00,,,0.00,VWS V14.01,2013-02-12 07:29:00,
2013-02-12 02:41:00,35.9,29.4,30.12,WSW,249,0.0,0.0,77,0.00,,,0.00,VWS V14.01,2013-02-12 07:41:00,
2013-02-12 02:46:00,35.8,29.3,30.12,WSW,249,0.0,0.0,77,0.00,,,0.00,VWS V14.01,2013-02-12 07:46:00,
2013-02-12 02:51:00,35.5,29.0,30.13,WSW,249,0.0,0.0,77,0.00,,,0.00,VWS V14.01,2013-02-12 07:51:00,
2013-02-12 02:56:00,35.4,29.2,30.12,WSW,249,0.0,0.0,78,0.00,,,0.00,VWS V14.01,2013-02-12 07:56:00,
2013-02-12 03:01:00,35.6,29.1,30.13,WSW,249,0.0,0.0,77,0.00,,,0.00,VWS V14.01,2013-02-12 08:01:00,
2013-02-12 03:06:00,35.7,29.2,30.12,WSW,249,0.0,0.0,77,0.00,,,0.00,VWS V14.01,2013-02-12 08:06:00,
2013-02-12 03:11:00,35.7,29.2,30.12,WSW,249,0.0,1.0,77,0.00,,,0.00,VWS V14.01,2013-02-12 08:11:00,
2013-02-12 03:16:00,35.7,29.2,30.12,WSW,249,0.0,0.0,77,0.00,,,0.00,VWS V14.01,2013-02-12 08:16:00,
2013-02-12 03:21:00,35.5,29.0,30.12,WSW,249,0.0,0.0,77,0.00,,,0.00,VWS V14.01,2013-02-12 08:21:00,
2013-02-12 03:26:00,35.4,28.9,30.13,WSW,249,0.0,2.0,77,0.00,,,0.00,VWS V14.01,2013-02-12 08:26:00,
2013-02-12 03:31:00,35.3,29.1,30.13,WSW,249,0.0,0.0,78,0.00,,,0.00,VWS V14.01,2013-02-12 08:31:00,
2013-02-12 03:36:00,35.0,28.5,30.13,WSW,249,0.0,0.0,77,0.00,,,0.00,VWS V14.01,2013-02-12 08:36:00,
2013-02-12 03:41:00,34.6,28.5,30.13,WSW,249,0.0,0.0,78,0.00,,,0.00,VWS V14.01,2013-02-12 08:41:00,
2013-02-12 03:46:00,34.4,28.6,30.13,WSW,249,0.0,0.0,79,0.00,,,0.00,VWS V14.01,2013-02-12 08:46:00,
2013-02-12 03:51:00,34.4,28.6,30.12,WSW,249,0.0,0.0,79,0.00,,,0.00,VWS V14.01,2013-02-12 08:51:00,
2013-02-12 03:56:00,34.4,28.6,30.13,WSW,249,0.0,0.0,79,0.00,,,0.00,VWS V14.01,2013-02-12 08:56:00,
2013-02-12 04:01:00,34.4,28.6,30.12,WSW,249,0.0,0.0,79,0.00,,,0.00,VWS V14.01,2013-02-12 09:01:00,
2013-02-12 04:06:00,34.3,28.5,30.12,WSW,249,0.0,0.0,79,0.00,,,0.00,VWS V14.01,2013-02-12 09:06:00,
2013-02-12 04:11:00,34.1,28.3,30.12,WSW,249,0.0,0.0,79,0.00,,,0.00,VWS V14.01,2013-02-12 09:11:00,
2013-02-12 04:16:00,34.1,28.6,30.13,WSW,249,0.0,0.0,80,0.00,,,0.00,VWS V14.01,2013-02-12 09:16:00,
2013-02-12 04:21:00,34.1,28.6,30.13,WSW,249,0.0,0.0,80,0.00,,,0.00,VWS V14.01,2013-02-12 09:21:00,
2013-02-12 04:26:00,33.8,28.3,30.13,WSW,249,0.0,0.0,80,0.00,,,0.00,VWS V14.01,2013-02-12 09:26:00,
2013-02-12 04:31:00,33.7,28.2,30.14,WSW,249,0.0,0.0,80,0.00,,,0.00,VWS V14.01,2013-02-12 09:31:00,
2013-02-12 04:36:00,33.9,28.7,30.14,WSW,249,0.0,0.0,81,0.00,,,0.00,VWS V14.01,2013-02-12 09:36:00,
2013-02-12 04:41:00,34.1,28.6,30.14,WSW,249,0.0,0.0,80,0.00,,,0.00,VWS V14.01,2013-02-12 09:41:00,
2013-02-12 04:46:00,34.1,28.6,30.14,WSW,249,0.0,0.0,80,0.00,,,0.00,VWS V14.01,2013-02-12 09:46:00,
2013-02-12 04:51:00,33.9,28.4,30.14,WSW,249,0.0,0.0,80,0.00,,,0.00,VWS V14.01,2013-02-12 09:51:00,
2013-02-12 04:56:00,33.8,28.3,30.14,WSW,249,0.0,0.0,80,0.00,,,0.00,VWS V14.01,2013-02-12 09:56:00,
2013-02-12 05:02:00,33.8,28.6,30.14,WSW,249,0.0,0.0,81,0.00,,,0.00,VWS V14.01,2013-02-12 10:02:00,
2013-02-12 05:07:00,33.7,28.2,30.14,WSW,249,0.0,0.0,80,0.00,,,0.00,VWS V14.01,2013-02-12 10:07:00,
2013-02-12 05:12:00,33.4,28.2,30.15,WSW,249,0.0,0.0,81,0.00,,,0.00,VWS V14.01,2013-02-12 10:12:00,
2013-02-12 05:17:00,33.3,28.4,30.15,WSW,249,0.0,1.0,82,0.00,,,0.00,VWS V14.01,2013-02-12 10:17:00,
2013-02-12 05:22:00,33.4,28.5,30.15,WSW,249,0.0,0.0,82,0.00,,,0.00,VWS V14.01,2013-02-12 10:22:00,
2013-02-12 05:27:00,33.5,28.6,30.16,WSW,249,0.0,0.0,82,0.00,,,0.00,VWS V14.01,2013-02-12 10:27:00,
2013-02-12 05:32:00,33.4,28.5,30.16,WSW,249,0.0,0.0,82,0.00,,,0.00,VWS V14.01,2013-02-12 10:32:00,
2013-02-12 05:37:00,33.3,28.4,30.16,WSW,249,0.0,0.0,82,0.00,,,0.00,VWS V14.01,2013-02-12 10:37:00,
2013-02-12 05:42:00,33.3,28.4,30.16,WSW,249,0.0,0.0,82,0.00,,,0.00,VWS V14.01,2013-02-12 10:42:00,
2013-02-12 05:47:00,33.3,28.4,30.16,WSW,249,1.0,1.0,82,0.00,,,0.00,VWS V14.01,2013-02-12 10:47:00,
2013-02-12 05:52:00,33.3,28.4,30.16,WSW,249,0.0,0.0,82,0.00,,,0.00,VWS V14.01,2013-02-12 10:52:00,
2013-02-12 05:57:00,33.2,28.3,30.16,WSW,249,0.0,0.0,82,0.00,,,0.00,VWS V14.01,2013-02-12 10:57:00,
2013-02-12 06:02:00,33.0,28.1,30.16,WSW,249,0.0,0.0,82,0.00,,,0.00,VWS V14.01,2013-02-12 11:02:00,
2013-02-12 06:07:00,32.9,28.3,30.16,WSW,249,0.0,0.0,83,0.00,,,0.00,VWS V14.01,2013-02-12 11:07:00,
2013-02-12 06:12:00,32.8,28.2,30.16,WSW,249,0.0,0.0,83,0.00,,,0.00,VWS V14.01,2013-02-12 11:12:00,
2013-02-12 06:17:00,32.9,28.6,30.16,WSW,249,0.0,0.0,84,0.00,,,0.00,VWS V14.01,2013-02-12 11:17:00,
2013-02-12 06:22:00,32.9,28.6,30.16,WSW,249,0.0,0.0,84,0.00,,,0.00,VWS V14.01,2013-02-12 11:22:00,
2013-02-12 06:27:00,32.8,28.5,30.16,WSW,249,0.0,0.0,84,0.00,,,0.00,VWS V14.01,2013-02-12 11:27:00,
2013-02-12 06:32:00,32.9,28.6,30.17,WSW,249,0.0,0.0,84,0.00,,,0.00,VWS V14.01,2013-02-12 11:32:00,
2013-02-12 06:37:00,32.9,28.3,30.17,WSW,249,0.0,0.0,83,0.00,,,0.00,VWS V14.01,2013-02-12 11:37:00,
2013-02-12 06:42:00,32.6,28.0,30.17,WSW,249,0.0,0.0,83,0.00,,,0.00,VWS V14.01,2013-02-12 11:42:00,
2013-02-12 06:47:00,32.5,28.2,30.17,WSW,249,0.0,0.0,84,0.00,,,0.00,VWS V14.01,2013-02-12 11:47:00,
2013-02-12 06:52:00,32.4,28.1,30.17,WSW,249,0.0,0.0,84,0.00,,,0.00,VWS V14.01,2013-02-12 11:52:00,
2013-02-12 06:57:00,32.3,28.0,30.18,WSW,249,0.0,0.0,84,0.00,,,0.00,VWS V14.01,2013-02-12 11:57:00,
2013-02-12 07:02:00,32.0,27.7,30.18,WSW,249,0.0,0.0,84,0.00,,,0.00,VWS V14.01,2013-02-12 12:02:00,
2013-02-12 07:07:00,31.8,27.5,30.18,WSW,249,0.0,0.0,84,0.00,,,0.00,VWS V14.01,2013-02-12 12:07:00,
2013-02-12 07:13:00,31.7,27.7,30.18,WSW,249,0.0,0.0,85,0.00,,,0.00,VWS V14.01,2013-02-12 12:13:00,
2013-02-12 07:18:00,31.6,27.6,30.18,WSW,249,0.0,0.0,85,0.00,,,0.00,VWS V14.01,2013-02-12 12:18:00,
2013-02-12 07:23:00,31.5,27.5,30.18,WSW,249,0.0,0.0,85,0.00,,,0.00,VWS V14.01,2013-02-12 12:23:00,
2013-02-12 07:28:00,31.4,27.4,30.18,WSW,249,0.0,0.0,85,0.00,,,0.00,VWS V14.01,2013-02-12 12:28:00,
2013-02-12 07:33:00,31.4,27.7,30.18,WSW,249,0.0,0.0,86,0.00,,,0.00,VWS V14.01,2013-02-12 12:33:00,
2013-02-12 07:38:00,31.4,27.7,30.18,WSW,249,0.0,0.0,86,0.00,,,0.00,VWS V14.01,2013-02-12 12:38:00,
2013-02-12 07:43:00,31.5,27.8,30.18,WSW,249,0.0,0.0,86,0.00,,,0.00,VWS V14.01,2013-02-12 12:43:00,
2013-02-12 07:48:00,31.5,27.8,30.18,WSW,248,0.0,0.0,86,0.01,,,0.01,VWS V14.01,2013-02-12 12:48:00,
2013-02-12 07:53:00,31.6,27.9,30.18,SW,219,0.0,0.0,86,0.01,,,0.01,VWS V14.01,2013-02-12 12:53:00,
2013-02-12 07:58:00,31.8,28.1,30.18,SW,219,0.0,0.0,86,0.01,,,0.01,VWS V14.01,2013-02-12 12:58:00,
2013-02-12 08:03:00,32.1,28.4,30.18,SW,219,0.0,0.0,86,0.01,,,0.01,VWS V14.01,2013-02-12 13:03:00,
2013-02-12 08:08:00,32.3,28.6,30.18,SW,219,0.0,0.0,86,0.01,,,0.01,VWS V14.01,2013-02-12 13:08:00,
2013-02-12 08:13:00,32.3,28.3,30.19,South,169,0.0,0.0,85,0.01,,,0.01,VWS V14.01,2013-02-12 13:13:00,
2013-02-12 08:18:00,32.3,28.3,30.19,South,172,0.0,0.0,85,0.01,,,0.01,VWS V14.01,2013-02-12 13:18:00,
2013-02-12 08:23:00,32.5,28.5,30.19,South,172,0.0,0.0,85,0.01,,,0.01,VWS V14.01,2013-02-12 13:23:00,
2013-02-12 08:28:00,32.8,28.8,30.19,WSW,256,0.0,0.0,85,0.01,,,0.01,VWS V14.01,2013-02-12 13:28:00,
2013-02-12 08:33:00,33.0,29.0,30.19,WSW,256,0.0,0.0,85,0.01,,,0.01,VWS V14.01,2013-02-12 13:33:00,
2013-02-12 08:38:00,33.7,29.4,30.19,WSW,256,0.0,0.0,84,0.01,,,0.01,VWS V14.01,2013-02-12 13:38:00,
2013-02-12 08:43:00,34.4,29.8,30.19,WSW,252,0.0,0.0,83,0.01,,,0.01,VWS V14.01,2013-02-12 13:43:00,
2013-02-12 08:48:00,34.7,29.8,30.19,SE,135,0.0,0.0,82,0.00,,,0.01,VWS V14.01,2013-02-12 13:48:00,
2013-02-12 08:53:00,35.3,30.1,30.19,SE,142,3.0,3.0,81,0.00,,,0.01,VWS V14.01,2013-02-12 13:53:00,
2013-02-12 08:58:00,36.0,30.4,30.19,SE,142,0.0,0.0,80,0.00,,,0.01,VWS V14.01,2013-02-12 13:58:00,
2013-02-12 09:03:00,36.4,30.5,30.19,WNW,295,1.0,2.0,79,0.00,,,0.01,VWS V14.01,2013-02-12 14:03:00,
2013-02-12 09:08:00,37.0,30.8,30.20,SE,135,0.0,1.0,78,0.00,,,0.01,VWS V14.01,2013-02-12 14:08:00,
2013-02-12 09:13:00,37.5,31.0,30.19,ENE,60,0.0,0.0,77,0.00,,,0.01,VWS V14.01,2013-02-12 14:13:00,
2013-02-12 09:18:00,38.0,31.1,30.19,SE,137,0.0,2.0,76,0.00,,,0.01,VWS V14.01,2013-02-12 14:18:00,
2013-02-12 09:23:00,38.4,31.5,30.19,SE,137,1.0,1.0,76,0.00,,,0.01,VWS V14.01,2013-02-12 14:23:00,
2013-02-12 09:28:00,38.9,31.7,30.19,SE,137,0.0,1.0,75,0.00,,,0.01,VWS V14.01,2013-02-12 14:28:00,
2013-02-12 09:33:00,39.1,31.9,30.19,SE,138,0.0,0.0,75,0.00,,,0.01,VWS V14.01,2013-02-12 14:33:00,
2013-02-12 09:38:00,39.8,32.5,30.18,SE,137,0.0,1.0,75,0.00,,,0.01,VWS V14.01,2013-02-12 14:38:00,
2013-02-12 09:43:00,40.2,31.6,30.17,SE,137,0.0,2.0,71,0.00,,,0.01,VWS V14.01,2013-02-12 14:43:00,
2013-02-12 09:48:00,40.6,32.3,30.17,SE,138,0.0,0.0,72,0.00,,,0.01,VWS V14.01,2013-02-12 14:48:00,
2013-02-12 09:54:00,41.3,32.3,30.17,SE,137,0.0,0.0,70,0.00,,,0.01,VWS V14.01,2013-02-12 14:54:00,
2013-02-12 09:59:00,41.7,32.3,30.17,SE,137,0.0,0.0,69,0.00,,,0.01,VWS V14.01,2013-02-12 14:59:00,
2013-02-12 10:04:00,42.0,32.2,30.17,SE,137,0.0,1.0,68,0.01,,,0.02,VWS V14.01,2013-02-12 15:04:00,
2013-02-12 10:09:00,42.2,32.0,30.17,West,259,0.0,1.0,67,0.01,,,0.02,VWS V14.01,2013-02-12 15:09:00,
2013-02-12 10:14:00,42.3,31.4,30.17,ENE,72,2.0,3.0,65,0.01,,,0.02,VWS V14.01,2013-02-12 15:14:00,
2013-02-12 10:19:00,42.2,31.3,30.17,ENE,74,1.0,2.0,65,0.01,,,0.02,VWS V14.01,2013-02-12 15:19:00,
2013-02-12 10:24:00,42.3,31.4,30.18,ENE,74,0.0,0.0,65,0.01,,,0.02,VWS V14.01,2013-02-12 15:24:00,
2013-02-12 10:29:00,42.9,31.6,30.17,ENE,74,0.0,2.0,64,0.01,,,0.02,VWS V14.01,2013-02-12 15:29:00,
2013-02-12 10:34:00,43.0,31.7,30.16,ENE,74,1.0,1.0,64,0.01,,,0.02,VWS V14.01,2013-02-12 15:34:00,
2013-02-12 10:39:00,43.2,31.5,30.16,NNE,33,0.0,2.0,63,0.01,,,0.02,VWS V14.01,2013-02-12 15:39:00,
2013-02-12 10:44:00,43.6,32.6,30.16,NNE,32,2.0,3.0,65,0.02,,,0.03,VWS V14.01,2013-02-12 15:44:00,
2013-02-12 10:49:00,43.4,31.3,30.16,WNW,296,1.0,4.0,62,0.02,,,0.03,VWS V14.01,2013-02-12 15:49:00,
2013-02-12 10:54:00,43.1,31.8,30.16,NE,37,1.0,3.0,64,0.02,,,0.03,VWS V14.01,2013-02-12 15:54:00,
2013-02-12 10:59:00,43.2,31.9,30.17,North,5,2.0,3.0,64,0.02,,,0.03,VWS V14.01,2013-02-12 15:59:00,
2013-02-12 11:04:00,43.4,32.0,30.16,North,360,0.0,2.0,64,0.01,,,0.03,VWS V14.01,2013-02-12 16:04:00,
2013-02-12 11:09:00,43.5,31.8,30.16,North,355,0.0,2.0,63,0.01,,,0.03,VWS V14.01,2013-02-12 16:09:00,
2013-02-12 11:14:00,43.7,31.5,30.14,North,355,2.0,3.0,62,0.01,,,0.03,VWS V14.01,2013-02-12 16:14:00,
2013-02-12 11:19:00,44.1,32.3,30.14,North,355,0.0,0.0,63,0.01,,,0.03,VWS V14.01,2013-02-12 16:19:00,
2013-02-12 11:24:00,44.8,33.4,30.13,North,355,1.0,4.0,64,0.01,,,0.03,VWS V14.01,2013-02-12 16:24:00,
2013-02-12 11:29:00,45.2,33.0,30.13,North,360,1.0,1.0,62,0.01,,,0.03,VWS V14.01,2013-02-12 16:29:00,
2013-02-12 11:34:00,45.6,33.3,30.13,North,360,4.0,4.0,62,0.01,,,0.03,VWS V14.01,2013-02-12 16:34:00,
2013-02-12 11:39:00,45.8,33.5,30.12,NW,314,0.0,0.0,62,0.01,,,0.03,VWS V14.01,2013-02-12 16:39:00,
2013-02-12 11:44:00,45.9,33.2,30.13,NW,314,0.0,0.0,61,0.02,,,0.04,VWS V14.01,2013-02-12 16:44:00,
2013-02-12 11:49:00,46.3,32.8,30.13,NW,321,1.0,2.0,59,0.01,,,0.04,VWS V14.01,2013-02-12 16:49:00,
2013-02-12 11:54:00,46.3,32.8,30.14,NW,321,3.0,3.0,59,0.01,,,0.04,VWS V14.01,2013-02-12 16:54:00,
2013-02-12 11:59:00,46.2,32.7,30.13,NW,309,1.0,1.0,59,0.01,,,0.04,VWS V14.01,2013-02-12 16:59:00,
2013-02-12 12:04:00,46.3,31.9,30.12,NW,322,1.0,1.0,57,0.01,,,0.04,VWS V14.01,2013-02-12 17:04:00,
2013-02-12 12:09:00,46.3,31.9,30.12,NW,308,1.0,3.0,57,0.01,,,0.04,VWS V14.01,2013-02-12 17:09:00,
2013-02-12 12:14:00,46.4,32.0,30.11,WNW,303,1.0,1.0,57,0.01,,,0.04,VWS V14.01,2013-02-12 17:14:00,
2013-02-12 12:19:00,46.8,32.4,30.11,NW,315,0.0,4.0,57,0.01,,,0.04,VWS V14.01,2013-02-12 17:19:00,
2013-02-12 12:24:00,47.0,31.2,30.12,NNW,342,1.0,3.0,54,0.01,,,0.04,VWS V14.01,2013-02-12 17:24:00,
2013-02-12 12:29:00,46.8,32.0,30.13,NNW,340,1.0,4.0,56,0.01,,,0.04,VWS V14.01,2013-02-12 17:29:00,
2013-02-12 12:35:00,46.4,31.6,30.13,NW,307,0.0,3.0,56,0.01,,,0.04,VWS V14.01,2013-02-12 17:35:00,
2013-02-12 12:40:00,46.5,31.7,30.14,SW,230,1.0,1.0,56,0.01,,,0.04,VWS V14.01,2013-02-12 17:40:00,
2013-02-12 12:45:00,46.6,32.2,30.14,SW,227,0.0,1.0,57,0.00,,,0.04,VWS V14.01,2013-02-12 17:45:00,
2013-02-12 12:50:00,46.7,31.0,30.14,SW,229,3.0,4.0,54,0.00,,,0.04,VWS V14.01,2013-02-12 17:50:00,
2013-02-12 12:55:00,46.7,31.4,30.14,SW,232,4.0,9.0,55,0.00,,,0.04,VWS V14.01,2013-02-12 17:55:00,
2013-02-12 13:00:00,46.9,32.5,30.14,SW,234,4.0,4.0,57,0.00,,,0.04,VWS V14.01,2013-02-12 18:00:00,
2013-02-12 13:05:00,47.2,31.9,30.14,SW,234,2.0,3.0,55,0.00,,,0.04,VWS V14.01,2013-02-12 18:05:00,
2013-02-12 13:10:00,47.5,31.7,30.14,SW,225,0.0,0.0,54,0.00,,,0.04,VWS V14.01,2013-02-12 18:10:00,
2013-02-12 13:15:00,47.8,31.5,30.14,SW,225,0.0,4.0,53,0.00,,,0.04,VWS V14.01,2013-02-12 18:15:00,
2013-02-12 13:20:00,48.0,31.2,30.14,South,191,4.0,4.0,52,0.00,,,0.04,VWS V14.01,2013-02-12 18:20:00,
2013-02-12 13:25:00,47.9,31.1,30.13,SSW,196,2.0,3.0,52,0.00,,,0.04,VWS V14.01,2013-02-12 18:25:00,
2013-02-12 13:30:00,48.1,31.3,30.14,SSW,196,3.0,3.0,52,0.00,,,0.04,VWS V14.01,2013-02-12 18:30:00,
2013-02-12 13:35:00,47.8,30.6,30.14,SW,225,1.0,2.0,51,0.00,,,0.04,VWS V14.01,2013-02-12 18:35:00,
2013-02-12 13:40:00,47.9,31.1,30.13,SW,229,1.0,2.0,52,0.00,,,0.04,VWS V14.01,2013-02-12 18:40:00,
2013-02-12 13:45:00,48.2,31.4,30.12,WSW,237,0.0,0.0,52,0.00,,,0.04,VWS V14.01,2013-02-12 18:45:00,
2013-02-12 13:50:00,48.5,32.2,30.12,SW,229,2.0,4.0,53,0.00,,,0.04,VWS V14.01,2013-02-12 18:50:00,
2013-02-12 13:55:00,48.9,32.5,30.11,SW,229,2.0,2.0,53,0.00,,,0.04,VWS V14.01,2013-02-12 18:55:00,
2013-02-12 14:00:00,49.0,31.2,30.11,SW,236,6.0,6.0,50,0.00,,,0.04,VWS V14.01,2013-02-12 19:00:00,
2013-02-12 14:05:00,48.8,30.5,30.11,SW,235,0.0,0.0,49,0.00,,,0.04,VWS V14.01,2013-02-12 19:05:00,
2013-02-12 14:10:00,48.9,31.1,30.11,SW,236,2.0,3.0,50,0.00,,,0.04,VWS V14.01,2013-02-12 19:10:00,
2013-02-12 14:15:00,48.7,31.4,30.11,SW,221,2.0,5.0,51,0.00,,,0.04,VWS V14.01,2013-02-12 19:15:00,
2013-02-12 14:20:00,48.6,31.8,30.11,SW,221,1.0,2.0,52,0.00,,,0.04,VWS V14.01,2013-02-12 19:20:00,
2013-02-12 14:25:00,48.6,31.8,30.10,SW,221,0.0,0.0,52,0.00,,,0.04,VWS V14.01,2013-02-12 19:25:00,
2013-02-12 14:30:00,48.7,32.3,30.10,SW,221,1.0,1.0,53,0.01,,,0.05,VWS V14.01,2013-02-12 19:30:00,
2013-02-12 14:35:00,48.9,32.5,30.10,SW,222,0.0,1.0,53,0.01,,,0.05,VWS V14.01,2013-02-12 19:35:00,
2013-02-12 14:40:00,49.1,32.7,30.10,SW,222,0.0,0.0,53,0.01,,,0.05,VWS V14.01,2013-02-12 19:40:00,
2013-02-12 14:45:00,49.1,32.2,30.09,SW,219,0.0,2.0,52,0.01,,,0.05,VWS V14.01,2013-02-12 19:45:00,
2013-02-12 14:50:00,49.2,32.3,30.10,SW,219,3.0,4.0,52,0.01,,,0.05,VWS V14.01,2013-02-12 19:50:00,
2013-02-12 14:55:00,49.0,31.7,30.10,SW,228,0.0,1.0,51,0.01,,,0.05,VWS V14.01,2013-02-12 19:55:00,
2013-02-12 15:00:00,48.8,31.0,30.09,SW,227,0.0,1.0,50,0.01,,,0.05,VWS V14.01,2013-02-12 20:00:00,
2013-02-12 15:05:00,48.7,30.4,30.09,SW,224,1.0,1.0,49,0.01,,,0.05,VWS V14.01,2013-02-12 20:05:00,
2013-02-12 15:10:00,48.7,31.9,30.09,SW,223,1.0,3.0,52,0.01,,,0.05,VWS V14.01,2013-02-12 20:10:00,
2013-02-12 15:15:00,48.8,31.5,30.08,SW,223,0.0,2.0,51,0.01,,,0.05,VWS V14.01,2013-02-12 20:15:00,
2013-02-12 15:20:00,48.8,31.5,30.08,SW,223,0.0,1.0,51,0.01,,,0.05,VWS V14.01,2013-02-12 20:20:00,
2013-02-12 15:26:00,48.7,31.4,30.08,SW,224,1.0,2.0,51,0.01,,,0.05,VWS V14.01,2013-02-12 20:26:00,
2013-02-12 15:31:00,48.7,31.9,30.08,SW,223,0.0,0.0,52,0.01,,,0.05,VWS V14.01,2013-02-12 20:31:00,
2013-02-12 15:36:00,48.7,31.4,30.08,SW,224,0.0,0.0,51,0.00,,,0.05,VWS V14.01,2013-02-12 20:36:00,
2013-02-12 15:41:00,48.7,31.4,30.08,SW,224,0.0,0.0,51,0.00,,,0.05,VWS V14.01,2013-02-12 20:41:00,